www.pogodaiklimat.ru
ПОГОДА в Селинсгрове
Время
и дата
00:53 25.05
01:53 25.05
02:53 25.05
03:53 25.05
04:53 25.05
05:53 25.05
06:53 25.05
07:53 25.05
08:53 25.05
09:53 25.05
10:53 25.05
11:53 25.05
12:53 25.05
13:53 25.05
14:53 25.05
15:53 25.05
16:53 25.05
17:53 25.05
18:31 25.05
18:45 25.05
18:53 25.05
19:00 25.05
19:19 25.05
19:39 25.05
19:53 25.05
20:53 25.05
21:53 25.05
22:48 25.05
22:53 25.05
23:18 25.05
23:29 25.05
23:46 25.05
23:51 25.05
23:53 25.05
00:01 26.05
00:07 26.05
00:22 26.05
00:50 26.05
00:53 26.05
00:56 26.05
01:05 26.05
01:14 26.05
01:40 26.05
01:53 26.05
02:00 26.05
02:09 26.05
02:43 26.05
02:53 26.05
Ветер
(напр.,м/с)
Видим. Явления Облачность Т
(С)
Тd
(С)
f
(%)
Тe
(С)
Тes
(С)
Комфортность P
(гПа)
Po
(гПа)
Тmin
(С)
Tmax
(С)
R
(мм)
R24
(мм)
S
(см)
СЗ 2 16 км ясно +15.0 +13.9 93 +15 +15 1011.3 995.1 +15.0 +25.0
штиль 0 16 км ясно +13.9 +13.3 96 +13 +13 1011.3 995.1
штиль 0 14 км ясно +13.3 +12.8 97 +13 +13 1011.0 994.7
СЗ 2 16 км ясно +13.3 +12.2 93 +13 +13 1011.2 995.1
штиль 0 10 км дымка ясно +12.2 +11.7 97 +12 +12 1011.2 995.1
СЗ 2 16 км ясно +14.4 +13.3 93 +14 +14 1011.7 995.7
штиль 0 16 км ясно +17.2 +13.9 81 +17 +19 1012.0 995.7 +12.2 +17.2
штиль 0 16 км ясно +18.9 +13.9 73 +20 +25 1012.7 996.4
штиль 0 16 км ясно +21.1 +13.9 63 +24 +33 комфорт 1012.2 996.1
нст 2 16 км ясно +23.9 +13.3 51 +26 +37 жарко 1011.8 995.7
Ю 3 16 км ясно +26.1 +13.9 47 +28 +41 жарко 1011.1 995.1
Ю 2 16 км ясно +28.3 +14.4 43 +31 +49 душно 1010.5 994.4
нст 2 16 км ясно +29.4 +13.3 37 +31 +51 опасность
солнечного
удара
1010.0 993.7 +17.2 +29.4
ЮВ 5 16 км ясно +30.6 +12.8 34 +32 +42 жарко 1009.1 993.1
Ю 4 16 км 5/0 2250 m
[Ac]
+28.9 +12.8 37 +30 +37 жарко 1008.8 992.7
ЮЗ 5
{9}
11 км слабый дождь 10/0 2250 m
[Ac As]
+22.2 +17.2 73 +27 +29 душно 1009.6 993.4 0.3
нст 2 16 км ясно +21.7 +18.9 84 +27 +35 душно 1009.4 993.1
нст 2 16 км ясно +21.1 +18.3 84 +25 +30 комфорт 1009.7 993.4
нст 2 16 км гроза 10/0 2100 m
[Ac]
+21.1 +18.3 84 +25 +26 комфорт 994.1
СЗ 4
{11}
4 км гроза с сильным дождем 10/8 990 m
[Ac Cb]
+20.6 +17.8 84 +24 +25 комфорт 995.1
СЗ 4 2 км гроза с сильным дождем, дымка 10/8 1230 m
[Ac Cb]
+19.4 +17.8 90 +22 +22 комфорт 1011.4 995.1 +19.4 +30.6 4.6
С 4 5 км гроза с дождем, дымка 10/5 1410 m
[Ac Cb]
+19.4 +17.8 90 +22 +22 комфорт 995.1
штиль 0 6 км гроза, слабый дождь, дымка 10/2 1650 m
[Ac Cb]
+19.4 +18.3 93 +21 +21 комфорт 995.1
В 3 13 км слабый дождь 10/0 2700 m
[Ac As]
+19.4 +18.3 93 +22 +22 комфорт 994.7
ЮВ 3 16 км 10/0 2850 m
[Ac]
+19.4 +18.3 93 +22 +22 комфорт 1011.0 994.7
СЗ 2 14 км 8/2 1350 m
[Ac]
+18.9 +18.3 96 +21 +21 комфорт 1011.6 995.4
штиль 0 11 км ясно +18.3 +17.8 97 +19 +19 1011.5 995.4 1.5
штиль 0 3 км дымка ясно +18.0 +17.0 94 +18 +18 995.4
штиль 0 4 км дымка ясно +17.8 +17.2 96 +18 +18 1011.5 995.4
штиль 0 2 км дымка ?/? +17.8 +17.2 96 +18 +18 995.4
штиль 0 3 км дымка 2/2 120 м +17.2 +16.7 97 +17 +17 995.7
штиль 0 2 км дымка 5/5 120 м +17.2 +16.7 97 +17 +17 995.4
штиль 0 3 км дымка 8/8 60 м +17.0 +17.0 100 +17 +17 995.4
штиль 0 3 км дымка 8/8 60 м +17.2 +16.7 97 +17 +17 1011.5 995.4
штиль 0 2 км дымка 8/8 60 м +17.2 +16.7 97 +17 +17 995.4
С 2 1 км дымка ?/? +16.7 +16.7 100 +17 +17 995.4
штиль 0 400 м туман ?/? +17.2 +17.2 100 +17 +17 995.4
штиль 0 800 м туман ?/? +17.0 +17.0 100 +17 +17 995.7
штиль 0 1 км дымка ?/? +17.2 +17.2 100 +17 +17 1011.7 995.7 +16.7 +19.4 1.5
штиль 0 2 км дымка 10/10 60 м +17.2 +17.2 100 +17 +17 995.7
штиль 0 5 км дымка 10/10 60 м +17.8 +17.2 96 +18 +18 995.7
штиль 0 3 км дымка 10/10 60 м +17.8 +17.8 100 +18 +18 995.7
штиль 0 2 км дымка 10/10 60 м +17.8 +17.2 96 +18 +18 995.7
С 2 2 км дымка 10/10 60 м +17.8 +17.2 96 +18 +18 1011.7 995.7
С 2 3 км дымка 10/10 60 м +17.8 +17.2 96 +18 +18 995.7
С 2 5 км дымка 10/10 60 м +17.8 +17.8 100 +18 +18 995.7
СВ 2 10 км дымка 10/10 90 м +18.3 +17.8 97 +19 +19 995.7
штиль 0 10 км дымка 10/10 240 м +18.3 +17.8 97 +19 +19 1011.6 995.4
Местоположение метеостанции Penn Valley Airport: широта 40.8192 долгота -76.8661 высота над уровнем моря 137 м.
В архиве по умолчанию представлена погода в Селинсгрове за последние 1-2 суток. Обновление информации о фактической погоде в базе происходит ежечасно! Архивные данные за месяц целиком и за предыдущие месяцы Вы можете получить, выбрав интересующий диапазон дат из раскрывающегося списка и нажав кнопку "Ввод!".
Внимание! Архив погоды МЕТАР в базе сайта по станциям, не включенным в климатический монитор, хранится не более 60 дней. Нет смысла пытаться выбрать более раннюю дату.
*Определитесь, кто Вы:
Внимание! Время в таблицах - местное (без учета летнего времени). Для получения всемирного времени необходимо вычесть поправку, которая равна -5 ч.
Смотрите также архив погоды в соседних городах и на ближайших метеорологических станциях:
Партнеры нашего сайта:      
Пояснения к столбцам:
  • Ветер - указаны скорость ветра в м/с - средняя за 10 мин, порывы в срок и между сроками (в фигурных скобках) и направление, откуда дует ветер: С - северный,
  • СВ - северо-восточный, В - восточный, ЮВ - юго-восточный, Ю - южный, ЮЗ - юго-западный, З - западный, СЗ - северо-западный.
  • Видимость - горизонтальная дальность видимости в метрах или километрах. При видимости от 1 до 10 км при отсутствии осадков обычно наблюдается дымка, при ухудшении видимости до 1 км и менее - туман. В сухую погоду видимость может ухудшаться дымом, пылью или мглою.
  • Явления - указаны атмосферные явления, наблюдавшиеся в срок или в последний час перед сроком; фигурными скобками обозначены явления, наблюдавшиеся между сроками (за 1-3 часа до срока); квадратными скобками обозначены град или гололедные отложения с указанием их диаметра в мм.
  • Облачность - указаны через наклонную черту общая и нижняя облачность в баллах и высота нижней границы облаков в метрах; квадратными скобками обозначены формы облаков: Ci - перистые, Cs - перисто-слоистые, Cc - перисто-кучевые, Ac - высококучевые, As - высокослоистые, Sc - слоисто-кучевые, Ns - слоисто-дождевые, Cu - кучевые, Cb - кучево-дождевые. Подробнее классификацию облаков см. в Атласе облаков (PDF).
  • T - Температура воздуха - температура, измеренная на высоте 2 м над землей.
  • Td - Температура точки росы - температура, при понижении до которой содержащийся в воздухе водяной пар достигнет насыщения.
  • f - Относительная влажность воздуха - влажноcть воздуха, измеренная на высоте 2 м над землей.
  • Te - Эффективная температура - температура, которую ощущает одетый по сезону человек в тени. Характеристика душности погоды. При расчете учитывается влияние влажности воздуха и скорости ветра на теплоощущения человека.
  • Tes - Эффективная температура на солнце - температура, которую ощущает человек, с поправкой на солнечный нагрев. Характеристика знойности погоды. Зависит от высоты солнца над горизонтом, облачности и скорости ветра. Ночью, в пасмурную погоду, а также при ветре 12 м/с и более поправка равна нулю.
  • P - Атмосферное давление - приведенное к уровню моря атмосферное давление.
  • Po - Атмосферное давление - измеренное на уровне метеостанции атмосферное давление.
  • Tmin - Минимальная температура - минимум температуры воздуха на высоте 2 м над землей.
  • Tmax - Максимальная температура - максимум температуры воздуха на высоте 2 м над землей.
  • R - Количество осадков - Количество выпавших осадков за период времени, мм. При наведении курсора мыши на число - период времени, за который выпало указанное количество осадков.
  • R24 - Количество осадков - Количество выпавших осадков за 24 часа, мм.
  • S - Снежный покров - Высота снежного покрова, см. При наведении курсора мыши на число - состояние снежного покрова и степень покрытия местности в баллах.